Weather in Sosnovka

Russia / Kemerovo Oblast     53°40′00″N   87°09′11″E
temp.,
°C
wind,
m/s
gust,
m/s
humid.,
%
clouds,
%
prec.,
mm/h
press.,
hPa
HPBL,
m
23 april, fri
fri2301:00−2n39763 0.0 1039258
04:00−2n38742 0.0 1039265
07:00−2nne38722 0.0 1039272
10:00+2nne355854 0.0 1039849
13:00+5ne454599 0.0 10371421
16:00+6ne6745100 0.0 10361602
19:00+5nne4850100 0.0 1036569
22:00+2n3966100 0.0 1036292
24 april, sat
sat2401:000n2674100 0.0 1035207
04:00−1n1381100 0.0 1034122
07:000nnw128076 0.0 1033131
10:00+3nw126582 0.0 1032488
13:00+6nw225297 0.1 10301397
16:00+6nw4452100 0.8 10301471
19:00+5nw445929 0.9 10301014
22:00+2nw2583100 0.1 1032285
25 april, sun
sun2501:00+2w1399100 0.4 1032200
04:00+1w1299100 0.9 1032153
07:00+1wnw1299100 2.1 1033116
10:00+2wnw129487 0.4 1034215
13:00+6nne125975 0.6 10331130
16:00+8wsw124991 0.3 10311463
19:00+7sw125657 0.6 1031861
22:00+4sse227442 0.1 103263
26 april, mon
mon2601:00+2s11815 0.1 103220
04:000sse11855 0.0 103113
07:00+1ese11825 0.0 103244
10:00+6ese236138 0.0 1030528
13:00+10se224499 0.0 10291467
16:00+11sse2240100 0.0 10271726
19:00+10s2449100 0.0 1027842
22:00+6sse22645 0.0 102624
27 april, tue
tue2701:00+4sse2273100 0.0 102545
04:00+3se2373100 0.0 102371
07:00+3sse31177100 0.4 1022350
10:00+5sw51286100 1.5 1022623
13:00+11wsw495589 1.8 10221672
16:00+13w61037100 0.1 10212874
19:00+11wnw3743100 0.1 1022814
22:00+8ssw2254100 0.0 102321